Location: Excel
(51.3833°N, 110.5667°W)
Time: 12:40:26
(UTC+00:00)

Envisat - Pass Details

Date: 11 December 2021
Orbit: 764 x 766 km, 98.2° (Epoch: 28 January)

Event Time Altitude Azimuth Distance (km) Brightness Sun altitude
Rises 00:48:08 0° 212° (SSW) 3,223 7.1 -13.7°
Reaches altitude 10° 00:51:14 10° 232° (SW) 2,303 6.7 -14.2°
Maximum altitude 00:54:31 17° 273° (W) 1,860 6.0 -14.7°
Drops below altitude 10° 00:57:50 10° 313° (NW) 2,315 5.9 -15.1°
Sets 01:00:58 0° 334° (NNW) 3,247 6.4 -15.6°
